sat.trackr.live / text

‹ back to catalog

STPSAT-7

NORAD 68630 · 2026-074D

PAYLOAD ACTIVE UNKNOWN

§ Identity

Operator
Country
US
Launch date
2026-04-07
Launch site
AFWTR
Launch vehicle
Mass (kg)
RCS (m²)

External: N2YO · Heavens-Above · Gunter

§ Orbital elements

Epoch: 2026-05-24T18:04:46.355520Z

Period
94.46 min
Inclination
60.0216°
Eccentricity
0.0023621
Mean motion
15.24391730 rev/d
Perigee alt
476.4 km
Apogee alt
508.8 km
Semi-major
6,870.7 km
B*
2.0692e-4
RAAN
268.0707°
Arg perigee
7.9775°
Mean anomaly
352.1677°
Rev number
720

§ Raw data

STPSAT-71 68630U 26074D   26144.75331430  .00004863  00000+0  20692-3 0  99972 68630  60.0216 268.0707 0023621   7.9775 352.1677 15.24391730  7204

JSON: /api/v1/satellites/68630 · /tle

For live sub-satellite position, see the globe view (requires WebGL).

§ Visibility from observer

Set your observer location to see the next 7 days of passes ≥ 10°. The values pass through the URL so the page stays shareable.

No JS? Fill the form by hand. The geolocation button needs JavaScript.